Regional Weather Roundup
Issued by NWS

Home | Current Version | Previous Version | Graphics & Text | Print | Product List | Glossary Off
Versions: 1 2 3 4 5 6 7 8 9 10 11 12 13 14 15 16 17 18 19 20 21 22 23 24 25 26 27 28 29 30 31 32 33 34 35 36 37 38 39 40 41 42 43 44 45 46 47 48 49 50

000
ASUS43 KTOP 300208
RWRKS

WEATHER ROUNDUP FOR KANSAS
NATIONAL WEATHER SERVICE GOODLAND KS
900 PM CDT FRI MAY 29 2015

NOTE:  "FAIR" INDICATES FEW OR NO CLOUDS BELOW 12,000 FEET WITH NO
SIGNIFICANT WEATHER AND/OR OBSTRUCTIONS TO VISIBILITY.

KSZ001>006-013>018-027>032-041>047-300300-
NORTHWEST KANSAS

CITY           SKY/WX    TMP DP  RH WIND       PRES   REMARKS
GOODLAND       PTCLDY    54  48  80 N20G30    30.20R
HAYS           CLOUDY    59  52  77 N15       30.05S
HILL CITY      CLOUDY    60  54  80 N15G22    30.12R
RUSSELL        RAIN      59  57  93 N15       30.05R FOG
$$

KSZ061>065-074>080-084>089-300300-
SOUTHWEST KANSAS

CITY           SKY/WX    TMP DP  RH WIND       PRES   REMARKS
DODGE CITY     LGT RAIN  63  54  72 N23G31    30.08R
ELKHART          N/A     67  55  65 E5          N/A
GARDEN CITY    MOCLDY    60  55  83 N13       30.09R
GREAT BEND     MOCLDY    63  54  72 N23G31    30.05R
LIBERAL        CLOUDY    68  55  64 N7        30.08R
PRATT          MOCLDY    72  59  64 N3        30.02R
$$

KSZ066>073-081>083-090>101-300300-
SOUTHEAST KANSAS

CITY           SKY/WX    TMP DP  RH WIND       PRES   REMARKS
CHANUTE        CLOUDY    66  65  96 CALM      29.96R
COFFEYVILLE    CLOUDY    66  65  96 CALM      29.95S
HUTCHINSON     CLOUDY    70  63  78 CALM      29.97R
MEDICINE LODGE   N/A     73  62  68 N3        29.98R
NEWTON         CLOUDY    72  63  73 NW5       29.99R
PARSONS        CLOUDY    67  67 100 CALM      29.97R
WICHITA INTL   CLOUDY    73  64  73 SW3       29.96R
WICHITA JABRA  CLOUDY    70  64  81 S5        29.96R
WICHITA MCCONL CLOUDY    70  64  83 S3        29.96R
WINFIELD       CLOUDY    72  65  78 CALM      29.97R
$$

KSZ007>012-019>026-033>040-048>060-102>105-300300-
NORTHEAST KANSAS

CITY           SKY/WX    TMP DP  RH WIND       PRES   REMARKS
CONCORDIA      TSTM      59  57  93 NW25G32   30.09R FOG
EMPORIA        CLOUDY    67  64  90 S6        29.95R
LAWRENCE       CLOUDY    67  64  90 SE5       29.95S
MANHATTAN      CLOUDY    71  65  81 W3        29.95R
MARYSVILLE     CLOUDY    70  63  78 NW15      29.96R
OLATHE IND     CLOUDY    66  64  93 S3        29.96S
OLATHE EXE     CLOUDY    66  65  96 CALM      29.95S
SALINA         CLOUDY    75  61  61 W5        29.97R
TOPEKA BILLARD CLOUDY    69  66  90 S3        29.95R
TOPEKA FORBES  CLOUDY    69  65  86 S3        29.95R
$$


USA.gov is the U.S. government's official web portal to all federal, state and local government web resources and services.